Rochester, NH

6:43 AM EST on February 24, 2018 (GMT -0500)
Skyhaven

Weather History for KDAW - March, 2013

Change the Weather History Date:

Sunday, March 3, 2013

  Actual Average (KPSM) Record (KPSM)
Temperature  
Mean Temperature 34 °F -  
Max Temperature 39 °F 37 °F 62 °F (2002)
Min Temperature 30 °F 22 °F -1 °F (1978)
Degree Days  
Heating Degree Days 30    
Moisture  
Dew Point 29 °F    
Average Humidity 83    
Maximum Humidity 93    
Minimum Humidity 62    
Precipitation  
Precipitation 0.02 in - - ()
Sea Level Pressure  
Sea Level Pressure 29.58 in    
Wind  
Wind Speed 8 mph (NW)    
Max Wind Speed 14 mph    
Max Gust Speed -    
Visibility 6 miles    
Events Snow    
Averages and records for this station are not official NWS values.
T = Trace of Precipitation, MM = Missing Value Source: NWS Daily Summary

Daily Weather History Graph

Daily Weather History Graph

Search for Another Location

Airport or City:

Trip Planner

Search our weather history database for the weather conditions in past years. The results will help you decide how hot, cold, wet, or windy it might be!

Date:

Astronomy

Mar. 03, 2013 Rise Set
Actual Time 6:16 AM EST 5:35 PM EST
Civil Twilight 5:47 AM EST 6:04 PM EST
Nautical Twilight 5:14 AM EST 6:37 PM EST
Astronomical Twilight 4:41 AM EST 7:10 PM EST
Moon No Moon Rise 9:17 AM EST (3/3)
Length of Visible Light 12h 16m
Length of Day
11h 19m
Waning Gibbous, 64% of the Moon is Illuminated
Mar 3
Waning Gibbous
Mar 4
Last Quarter
Mar 11
New
Mar 19
First Quarter
Mar 27
Full

Hourly Weather History & Observations

Time (EST) Temp. Windchill Dew Point Humidity Pressure Visibility Wind Dir Wind Speed Gust Speed Precip Events Conditions
12:51 AM 32.0 °F 24.8 °F 28.9 °F 88% 29.62 in 9.0 mi NW 8.1 mph - 0.00 in Snow Light Snow
1:11 AM 32.0 °F 24.2 °F 28.4 °F 87% 29.61 in 7.0 mi NW 9.2 mph - 0.00 in Snow Light Snow
1:51 AM 30.9 °F 22.8 °F 28.0 °F 89% 29.60 in 5.0 mi NW 9.2 mph - 0.00 in Snow Light Snow
2:51 AM 30.9 °F 23.5 °F 28.0 °F 89% 29.60 in 3.0 mi NW 8.1 mph - 0.00 in Snow Light Snow
3:01 AM 30.2 °F 21.9 °F 28.4 °F 93% 29.59 in 2.5 mi NW 9.2 mph - 0.00 in Snow Light Snow
3:27 AM 30.2 °F 21.9 °F 28.4 °F 93% 29.60 in 3.0 mi NW 9.2 mph - 0.00 in Snow Light Snow
4:12 AM 30.2 °F 23.4 °F 28.4 °F 93% 29.59 in 2.5 mi NW 6.9 mph - 0.00 in Snow Light Snow
4:28 AM 30.2 °F 23.4 °F 28.4 °F 93% 29.59 in 4.0 mi NW 6.9 mph - 0.00 in Snow Light Snow
4:51 AM 30.9 °F 22.8 °F 28.0 °F 89% 29.60 in 4.0 mi NW 9.2 mph - 0.00 in Snow Light Snow
5:25 AM 30.2 °F 22.6 °F 28.4 °F 93% 29.60 in 2.5 mi NW 8.1 mph - 0.00 in Snow Light Snow
5:51 AM 30.0 °F 21.7 °F 28.0 °F 92% 29.60 in 2.0 mi NW 9.2 mph - 0.01 in Snow Light Snow
6:26 AM 30.2 °F 22.6 °F 28.4 °F 93% 29.60 in 3.0 mi NW 8.1 mph - 0.00 in Snow Light Snow
6:37 AM 30.2 °F 22.6 °F 28.4 °F 93% 29.60 in 2.0 mi NW 8.1 mph - 0.00 in Snow Light Snow
6:51 AM 30.0 °F 21.1 °F 27.0 °F 88% 29.60 in 2.0 mi NW 10.4 mph - 0.00 in Snow Light Snow
7:02 AM 30.2 °F 22.6 °F 26.6 °F 86% 29.60 in 3.0 mi NW 8.1 mph - 0.00 in Snow Light Snow
7:51 AM 30.9 °F 22.2 °F 28.0 °F 89% 29.61 in 3.0 mi NW 10.4 mph - 0.00 in Snow Light Snow
8:07 AM 30.2 °F 22.6 °F 28.4 °F 93% 29.61 in 2.5 mi NW 8.1 mph - 0.00 in Snow Light Snow
8:31 AM 30.2 °F 21.3 °F 28.4 °F 93% 29.61 in 1.8 mi NW 10.4 mph - 0.00 in Snow Light Snow
8:41 AM 30.2 °F 22.6 °F 28.4 °F 93% 29.60 in 2.0 mi NW 8.1 mph - 0.00 in Snow Light Snow
8:58 AM 32.0 °F 24.8 °F 28.4 °F 87% 29.60 in 2.0 mi NW 8.1 mph - 0.00 in Snow Light Snow
9:07 AM 32.0 °F 23.6 °F 28.4 °F 87% 29.60 in 1.8 mi NW 10.4 mph - 0.00 in Snow Light Snow
9:21 AM 32.0 °F 24.2 °F 28.4 °F 87% 29.60 in 2.5 mi NW 9.2 mph - 0.00 in Snow Light Snow
9:36 AM 32.0 °F 24.2 °F 28.4 °F 87% 29.59 in 3.0 mi NW 9.2 mph - 0.00 in Snow Light Snow
9:51 AM 33.1 °F 25.5 °F 28.9 °F 85% 29.59 in 2.0 mi NW 9.2 mph - 0.00 in Snow Light Snow
9:58 AM 33.8 °F 26.4 °F 28.4 °F 81% 29.59 in 2.0 mi NW 9.2 mph - 0.00 in Snow Light Snow
10:21 AM 33.8 °F 27.0 °F 30.2 °F 87% 29.59 in 2.5 mi NW 8.1 mph - 0.00 in Snow Light Snow
10:41 AM 33.8 °F 25.8 °F 30.2 °F 87% 29.58 in 2.5 mi NW 10.4 mph - 0.00 in Snow Light Snow
10:51 AM 34.0 °F 28.0 °F 30.0 °F 85% 29.59 in 2.5 mi NW 6.9 mph - 0.00 in Snow Light Snow
10:55 AM 33.8 °F 27.7 °F 30.2 °F 87% 29.58 in 3.0 mi NW 6.9 mph - 0.00 in Snow Light Snow
11:22 AM 33.8 °F 27.0 °F 30.2 °F 87% 29.58 in 4.0 mi NW 8.1 mph - 0.01 in Snow Light Snow
11:51 AM 36.0 °F 32.1 °F 32.0 °F 86% 29.58 in 10.0 mi NW 4.6 mph - 0.01 in   Overcast
12:26 PM 37.4 °F 34.9 °F 32.0 °F 81% 29.56 in 10.0 mi NW 3.5 mph - N/A   Overcast
12:51 PM 37.9 °F 34.4 °F 32.0 °F 79% 29.56 in 10.0 mi WNW 4.6 mph - N/A   Overcast
1:09 PM 37.4 °F 34.9 °F 32.0 °F 81% 29.55 in 10.0 mi Variable 3.5 mph - N/A   Overcast
1:38 PM 37.4 °F 32.8 °F 32.0 °F 81% 29.54 in 10.0 mi WNW 5.8 mph - N/A   Overcast
1:51 PM 37.9 °F 35.5 °F 32.0 °F 79% 29.55 in 10.0 mi WNW 3.5 mph - N/A   Overcast
2:30 PM 39.2 °F 34.2 °F 30.2 °F 70% 29.54 in 10.0 mi WNW 6.9 mph - N/A   Overcast
2:38 PM 39.2 °F 35.0 °F 30.2 °F 70% 29.54 in 10.0 mi WNW 5.8 mph - N/A   Overcast
2:51 PM 39.0 °F 35.7 °F 30.9 °F 73% 29.54 in 10.0 mi WNW 4.6 mph - N/A   Overcast
2:59 PM 39.2 °F 35.0 °F 30.2 °F 70% 29.54 in 10.0 mi WNW 5.8 mph - N/A   Overcast
5:51 PM 37.9 °F 32.7 °F 26.1 °F 62% 29.55 in 10.0 mi NNW 6.9 mph - N/A   Overcast
6:51 PM 37.0 °F 29.8 °F 26.1 °F 65% 29.56 in 10.0 mi WNW 10.4 mph - N/A   Overcast
7:51 PM 35.1 °F 25.9 °F 25.0 °F 67% 29.57 in 10.0 mi NW 13.8 mph - N/A   Overcast
8:51 PM 34.0 °F 25.0 °F 25.0 °F 70% 29.57 in 10.0 mi NW 12.7 mph - N/A   Overcast
9:51 PM 34.0 °F 26.6 °F 24.1 °F 67% 29.56 in 10.0 mi WNW 9.2 mph - N/A   Overcast
10:51 PM 32.0 °F 24.8 °F 23.0 °F 69% 29.55 in 10.0 mi WNW 8.1 mph - N/A   Mostly Cloudy
11:51 PM 32.0 °F 23.6 °F 23.0 °F 69% 29.55 in 10.0 mi WNW 10.4 mph - N/A   Overcast